Weather History for Lee's Summit, MO

Change the Weather History Date:

Monday, February 4, 2013

  Actual Average (KMKC) Record (KMKC)
Temperature  
Mean Temperature 35 °F -  
Max Temperature 46 °F 40 °F 70 °F (2008)
Min Temperature 24 °F 24 °F 10 °F (2007)
Degree Days  
Heating Degree Days 30    
Moisture  
Dew Point 25 °F    
Average Humidity 62    
Maximum Humidity 84    
Minimum Humidity 44    
Precipitation  
Precipitation 0.00 in - - ()
Sea Level Pressure  
Sea Level Pressure 29.91 in    
Wind  
Wind Speed 10 mph (NNW)    
Max Wind Speed 16 mph    
Max Gust Speed 24 mph    
Visibility 10 miles    
Events      
Averages and records for this station are not official NWS values.
T = Trace of Precipitation, MM = Missing Value Source: NWS Daily Summary

Daily Weather History Graph

Daily Weather History Graph

Search for Another Location

Airport:

Trip Planner

Search our weather history database for the weather conditions in past years. The results will help you decide how hot, cold, wet, or windy it might be!

Date:

Astronomy

Feb. 04, 2013 Rise Set
Actual Time 7:20 AM CST 5:42 PM CST
Civil Twilight 6:52 AM CST 6:10 PM CST
Nautical Twilight 6:21 AM CST 6:42 PM CST
Astronomical Twilight 5:49 AM CST 7:13 PM CST
Moon 1:56 AM CST (2/4) 12:07 PM CST (2/4)
Length of Visible Light 11h 17m
Length of Day
10h 21m
Last Quarter, 37% of the Moon is Illuminated
Feb 4
Last Quarter
Feb 10
New
Feb 17
First Quarter
Feb 25
Full
Mar 4
Last Quarter

Hourly Weather History & Observations

Time (CST) Temp. Windchill Dew Point Humidity Pressure Visibility Wind Dir Wind Speed Gust Speed Precip Events Conditions
12:53 AM 43.0 °F 37.2 °F 25.0 °F 49% 29.84 in 10.0 mi SSW 10.4 mph - N/A   Clear
1:53 AM 45.0 °F 38.9 °F 25.0 °F 46% 29.82 in 10.0 mi SSW 12.7 mph - N/A   Clear
2:53 AM 46.9 °F - 26.1 °F 44% 29.80 in 10.0 mi SSW 12.7 mph - N/A   Clear
4:53 AM 46.0 °F 42.5 °F 27.0 °F 47% 29.82 in 10.0 mi West 6.9 mph - N/A   Clear
5:53 AM 45.0 °F 40.1 °F 28.0 °F 52% 29.82 in 10.0 mi WSW 9.2 mph - N/A   Clear
6:53 AM 39.9 °F 33.9 °F 28.0 °F 63% 29.82 in 10.0 mi SW 9.2 mph - N/A   Clear
7:53 AM 42.1 °F 37.1 °F 28.0 °F 58% 29.84 in 10.0 mi West 8.1 mph - N/A   Clear
8:53 AM 44.1 °F 36.8 °F 28.0 °F 53% 29.87 in 10.0 mi NNW 16.1 mph - N/A   Clear
9:53 AM 44.1 °F 38.1 °F 28.0 °F 53% 29.89 in 10.0 mi NNW 11.5 mph - N/A   Clear
10:53 AM 46.0 °F 39.9 °F 28.9 °F 51% 29.91 in 10.0 mi North 13.8 mph - N/A   Clear
11:53 AM 46.0 °F 39.6 °F 28.0 °F 50% 29.93 in 10.0 mi North 15.0 mph 24.2 mph N/A   Clear
12:53 PM 44.1 °F 37.7 °F 28.0 °F 53% 29.93 in 10.0 mi North 12.7 mph - N/A   Clear
1:53 PM 41.0 °F 33.1 °F 27.0 °F 57% 29.94 in 10.0 mi NNE 15.0 mph - N/A   Clear
2:53 PM 37.9 °F 30.5 °F 26.1 °F 62% 29.94 in 10.0 mi North 11.5 mph 23.0 mph N/A   Clear
3:53 PM 37.0 °F 28.9 °F 26.1 °F 65% 29.96 in 10.0 mi North 12.7 mph - N/A   Clear
4:53 PM 33.1 °F 26.1 °F 24.1 °F 70% 29.97 in 10.0 mi North 8.1 mph - N/A   Clear
5:53 PM 30.0 °F 22.4 °F 23.0 °F 75% 29.98 in 10.0 mi North 8.1 mph - N/A   Clear
6:53 PM 28.0 °F 20.8 °F 21.9 °F 78% 29.99 in 10.0 mi North 6.9 mph - N/A   Clear
7:53 PM 27.0 °F 21.6 °F 21.0 °F 78% 29.99 in 10.0 mi NNE 4.6 mph - N/A   Clear
8:53 PM 26.1 °F 21.9 °F 21.0 °F 81% 30.01 in 10.0 mi NNW 3.5 mph - N/A   Clear
9:53 PM 24.1 °F - 19.9 °F 84% 30.01 in 10.0 mi Calm Calm - N/A   Clear
10:53 PM 24.1 °F - 19.9 °F 84% 30.00 in 10.0 mi Calm Calm - N/A   Clear